Find Starlink 31896

NORAD ID: 59851 Int'l Des: 2024-097 Owner: SPXS Country: US Constellation: starlink operational
LEOCIRCULAR

Current View

Loading 3D Globe...

About Starlink 31896

Starlink 31896 (NORAD 59851) is a starlink constellation satellite (v2 mini) launched May 23, 2024 by SPXS of US. It operates in LEO, CIRCULAR orbit with a mass of 730.00 kg.

About Starlink 31896

Description loading...

Upcoming Passes

Passes for default location (London). Set your location on the main map for personalized predictions.

Altitude History

Loading altitude history...

Two-Line Element Set

1 59851U 24097S 26170.40901075 .00000522 00000-0 28484-4 0 9991
2 59851 43.0070 59.8838 0000947 259.5144 100.5601 15.27575927117478
Epoch: Jun 19, 2026 • Age: 25 hours

Current Status

Altitude 495.7 km
Velocity 7.62 km/s
Sub-Earth Point -43.05°S, 97.66°W
Launch Date May 23, 2024
Age 2 years
Type internet

Technical Details

Classification Payload
Mass 730.00 kg
Dry Mass 700.00 kg
Total Mass 730.00 kg
Length 0.30 m
Diameter 4.10 m
Span 29.00 m
Shape Box + pan
Manufacturer SPXS
Bus Type Starlink V2M
Phase Status In Orbit
Owner/State SPXS/US

Most Searched